Terminal Aerodrome Forecast
Issued by NWS

Home | Current Version | Previous Version | Graphics & Text | Print | Product List | Glossary On
Versions: 1 2 3 4 5 6 7 8 9 10 11 12 13 14 15 16 17 18 19 20 21 22 23 24 25 26 27 28 29 30 31
000
FTUS43 KLOT 161100
TAFGYY
TAF
KGYY 161130Z 1612/1712 15009KT P6SM SCT100
     FM161500 17015G24KT P6SM SCT070 BKN100
     FM161900 16018G28KT P6SM BKN120
     FM170300 18015KT P6SM SCT050 BKN120=

USA.gov is the U.S. government's official web portal to all federal, state and local government web resources and services.